GFSFLT1_prec_precacc24_063.txt.gz
Total_Precipitation_Accumulation
0.00 0.00 0.00 0.00 0.00 0.01 0.00 0.01 0.07 0.08 0.05 0.05 0.02 0.02 0.09 0.06 0.05 0.10 0.15 0.14 0.08 0.04 0.02 0.00 0.00 0.00 0.00 0.00 0.00 0.00 0.00 0.00
0.00 0.00 0.00 0.00 0.00 0.07 0.05 0.02 0.01 0.01 0.01 0.01 0.00 0.02 0.02 0.05 0.11 0.14 0.14 0.10 0.07 0.03 0.01 0.00 0.00 0.00 0.00 0.00 0.00 0.00 0.00 0.00
0.00 0.00 0.00 0.00 0.00 0.05 0.10 0.03 0.04 0.02 0.01 0.00 0.00 0.00 0.04 0.04 0.10 0.10 0.08 0.09 0.07 0.04 0.01 0.00 0.00 0.00 0.00 0.00 0.00 0.00 0.00 0.00
0.00 0.00 0.00 0.01 0.01 0.08 0.07 0.06 0.04 0.02 0.00 0.00 0.00 0.02 0.05 0.04 0.08 0.14 0.10 0.06 0.03 0.01 0.00 0.01 0.00 0.00 0.00 0.00 0.00 0.00 0.00 0.00
0.00 0.00 0.00 0.00 0.01 0.08 0.06 0.05 0.04 0.03 0.00 0.00 0.00 0.02 0.04 0.07 0.10 0.08 0.03 0.02 0.01 0.01 0.01 0.02 0.01 0.00 0.00 0.00 0.00 0.00 0.00 0.00
0.00 0.00 0.00 0.01 0.02 0.07 0.08 0.09 0.09 0.05 0.02 0.04 0.07 0.11 0.13 0.12 0.09 0.05 0.03 0.04 0.04 0.03 0.02 0.02 0.00 0.00 0.00 0.00 0.00 0.00 0.00 0.00
0.00 0.01 0.01 0.00 0.03 0.05 0.04 0.11 0.07 0.13 0.08 0.11 0.13 0.15 0.13 0.10 0.07 0.04 0.03 0.02 0.03 0.03 0.03 0.03 0.02 0.01 0.01 0.00 0.00 0.00 0.00 0.01
0.00 0.00 0.00 0.00 0.01 0.02 0.06 0.13 0.15 0.16 0.23 0.16 0.15 0.16 0.10 0.04 0.02 0.02 0.02 0.03 0.03 0.03 0.03 0.03 0.03 0.04 0.02 0.01 0.01 0.03 0.02 0.02
0.00 0.00 0.00 0.01 0.03 0.02 0.09 0.09 0.17 0.17 0.23 0.21 0.22 0.19 0.06 0.04 0.04 0.09 0.08 0.05 0.03 0.05 0.06 0.05 0.05 0.05 0.07 0.08 0.05 0.02 0.01 0.03
0.00 0.00 0.00 0.04 0.02 0.04 0.10 0.13 0.16 0.17 0.17 0.19 0.28 0.24 0.11 0.07 0.07 0.06 0.06 0.05 0.06 0.07 0.08 0.13 0.22 0.25 0.10 0.04 0.04 0.04 0.03 0.04
0.00 0.00 0.00 0.01 0.03 0.07 0.07 0.06 0.09 0.09 0.10 0.14 0.20 0.22 0.19 0.10 0.07 0.07 0.07 0.07 0.10 0.12 0.15 0.19 0.14 0.07 0.07 0.08 0.06 0.04 0.03 0.02
0.00 0.00 0.00 0.00 0.01 0.03 0.02 0.02 0.02 0.04 0.08 0.11 0.12 0.18 0.16 0.15 0.16 0.13 0.09 0.11 0.17 0.21 0.15 0.13 0.20 0.20 0.14 0.07 0.06 0.08 0.07 0.04
0.00 0.00 0.00 0.00 0.00 0.00 0.00 0.02 0.04 0.11 0.15 0.18 0.20 0.23 0.26 0.27 0.23 0.17 0.19 0.20 0.17 0.18 0.37 0.48 0.31 0.17 0.14 0.12 0.10 0.06 0.04 0.02
0.00 0.00 0.00 0.00 0.00 0.01 0.04 0.06 0.11 0.18 0.15 0.18 0.24 0.24 0.24 0.24 0.22 0.21 0.30 0.48 0.61 0.61 0.49 0.33 0.19 0.14 0.13 0.12 0.10 0.07 0.03 0.01
0.00 0.00 0.00 0.00 0.01 0.07 0.11 0.11 0.16 0.19 0.21 0.23 0.29 0.29 0.23 0.18 0.14 0.14 0.18 0.17 0.14 0.10 0.09 0.10 0.14 0.13 0.09 0.08 0.05 0.02 0.00 0.00
0.00 0.01 0.03 0.03 0.05 0.13 0.15 0.18 0.18 0.21 0.19 0.18 0.18 0.13 0.08 0.06 0.04 0.02 0.03 0.05 0.07 0.07 0.07 0.06 0.05 0.07 0.08 0.06 0.02 0.00 0.00 0.00
0.00 0.01 0.04 0.05 0.07 0.11 0.13 0.15 0.16 0.15 0.12 0.14 0.10 0.07 0.02 0.01 0.00 0.02 0.03 0.03 0.02 0.03 0.05 0.09 0.09 0.06 0.04 0.02 0.00 0.00 0.00 0.00
0.00 0.00 0.00 0.01 0.02 0.05 0.07 0.07 0.08 0.05 0.05 0.02 0.01 0.01 0.01 0.00 0.01 0.00 0.01 0.04 0.07 0.12 0.15 0.11 0.04 0.01 0.01 0.00 0.00 0.00 0.00 0.00
0.00 0.00 0.00 0.00 0.00 0.00 0.01 0.00 0.01 0.01 0.00 0.00 0.00 0.00 0.00 0.00 0.01 0.05 0.10 0.13 0.16 0.13 0.04 0.01 0.00 0.00 0.00 0.00 0.00 0.00 0.00 0.00

GFSFLT1_prec_precacc24_066.txt.gz
Total_Precipitation_Accumulation
0.00 0.00 0.00 0.00 0.00 0.00 0.00 0.00 0.01 0.01 0.01 0.02 0.01 0.01 0.03 0.04 0.04 0.10 0.15 0.16 0.09 0.04 0.03 0.00 0.00 0.00 0.00 0.00 0.00 0.00 0.00 0.00
0.00 0.00 0.00 0.00 0.00 0.03 0.03 0.00 0.00 0.00 0.00 0.01 0.00 0.02 0.02 0.05 0.11 0.14 0.17 0.15 0.10 0.04 0.02 0.00 0.00 0.00 0.00 0.00 0.00 0.00 0.00 0.00
0.00 0.00 0.00 0.00 0.00 0.05 0.08 0.02 0.01 0.01 0.01 0.00 0.00 0.00 0.04 0.04 0.10 0.10 0.09 0.13 0.09 0.04 0.02 0.01 0.01 0.00 0.00 0.00 0.00 0.00 0.00 0.00
0.00 0.00 0.00 0.01 0.00 0.05 0.06 0.05 0.03 0.02 0.00 0.00 0.00 0.02 0.05 0.04 0.08 0.14 0.11 0.07 0.04 0.01 0.01 0.01 0.00 0.01 0.00 0.00 0.00 0.00 0.00 0.00
0.00 0.00 0.00 0.00 0.01 0.06 0.05 0.05 0.04 0.03 0.00 0.00 0.00 0.02 0.04 0.07 0.10 0.08 0.03 0.02 0.01 0.01 0.01 0.02 0.02 0.02 0.01 0.01 0.00 0.00 0.00 0.00
0.00 0.00 0.00 0.00 0.02 0.07 0.08 0.09 0.09 0.05 0.02 0.04 0.07 0.11 0.13 0.12 0.09 0.05 0.03 0.05 0.04 0.03 0.02 0.02 0.02 0.03 0.03 0.02 0.00 0.00 0.00 0.00
0.00 0.00 0.01 0.00 0.03 0.05 0.04 0.11 0.07 0.13 0.08 0.11 0.13 0.15 0.14 0.10 0.07 0.04 0.03 0.02 0.03 0.03 0.04 0.05 0.05 0.05 0.05 0.04 0.06 0.09 0.13 0.08
0.00 0.00 0.00 0.00 0.01 0.02 0.06 0.13 0.15 0.16 0.23 0.16 0.15 0.16 0.12 0.05 0.02 0.02 0.05 0.09 0.11 0.08 0.05 0.04 0.04 0.06 0.05 0.06 0.11 0.13 0.09 0.08
0.00 0.00 0.00 0.01 0.03 0.02 0.09 0.09 0.17 0.17 0.23 0.21 0.22 0.19 0.06 0.05 0.04 0.09 0.14 0.12 0.08 0.06 0.06 0.06 0.07 0.09 0.18 0.22 0.23 0.19 0.16 0.09
0.00 0.00 0.00 0.04 0.02 0.04 0.10 0.13 0.16 0.17 0.17 0.19 0.28 0.24 0.11 0.07 0.07 0.12 0.14 0.09 0.07 0.07 0.09 0.14 0.25 0.32 0.25 0.16 0.15 0.14 0.11 0.06
0.00 0.00 0.00 0.01 0.03 0.07 0.07 0.06 0.09 0.09 0.10 0.14 0.20 0.22 0.23 0.14 0.15 0.23 0.20 0.13 0.14 0.14 0.17 0.22 0.15 0.10 0.13 0.20 0.21 0.13 0.06 0.04
0.00 0.00 0.00 0.00 0.01 0.03 0.02 0.02 0.02 0.04 0.08 0.11 0.13 0.23 0.23 0.35 0.50 0.28 0.16 0.19 0.25 0.26 0.18 0.14 0.23 0.31 0.28 0.19 0.15 0.14 0.12 0.07
0.00 0.00 0.00 0.00 0.00 0.00 0.00 0.02 0.04 0.11 0.16 0.36 0.35 0.58 0.51 0.33 0.37 0.29 0.28 0.28 0.23 0.20 0.38 0.49 0.35 0.22 0.18 0.18 0.14 0.08 0.06 0.04
0.00 0.00 0.00 0.00 0.00 0.01 0.04 0.07 0.12 0.22 0.32 0.45 0.35 0.52 0.26 0.25 0.25 0.26 0.34 0.53 0.65 0.63 0.51 0.37 0.24 0.18 0.15 0.12 0.10 0.07 0.04 0.01
0.00 0.00 0.00 0.00 0.01 0.07 0.11 0.12 0.18 0.24 0.24 0.27 0.34 0.33 0.25 0.24 0.16 0.21 0.21 0.19 0.16 0.11 0.10 0.11 0.14 0.13 0.09 0.08 0.06 0.03 0.01 0.00
0.00 0.01 0.03 0.03 0.05 0.13 0.16 0.20 0.19 0.23 0.22 0.20 0.21 0.18 0.18 0.09 0.06 0.06 0.05 0.06 0.07 0.07 0.07 0.06 0.05 0.07 0.09 0.06 0.02 0.00 0.00 0.00
0.00 0.01 0.04 0.05 0.07 0.11 0.15 0.15 0.16 0.17 0.14 0.17 0.13 0.13 0.09 0.05 0.04 0.02 0.03 0.03 0.02 0.03 0.05 0.09 0.09 0.06 0.06 0.02 0.00 0.00 0.00 0.00
0.00 0.00 0.01 0.03 0.03 0.05 0.07 0.07 0.09 0.07 0.09 0.08 0.07 0.06 0.04 0.02 0.01 0.01 0.01 0.04 0.07 0.12 0.15 0.11 0.04 0.01 0.01 0.00 0.00 0.00 0.00 0.00
0.00 0.00 0.02 0.00 0.00 0.00 0.01 0.01 0.02 0.01 0.01 0.01 0.01 0.00 0.00 0.00 0.01 0.05 0.10 0.13 0.16 0.13 0.04 0.01 0.00 0.00 0.00 0.00 0.00 0.00 0.00 0.00

GFSFLT1_prec_precacc24_072.txt.gz
Total_Precipitation_Accumulation
0.00 0.00 0.00 0.00 0.00 0.00 0.02 0.00 0.00 0.00 0.00 0.01 0.01 0.01 0.03 0.04 0.04 0.10 0.15 0.16 0.09 0.04 0.03 0.00 0.00 0.00 0.00 0.00 0.00 0.00 0.00 0.00
0.00 0.00 0.00 0.00 0.00 0.00 0.00 0.00 0.00 0.00 0.00 0.00 0.00 0.01 0.02 0.05 0.11 0.14 0.17 0.15 0.10 0.04 0.03 0.00 0.00 0.00 0.00 0.00 0.00 0.00 0.00 0.00
0.00 0.00 0.00 0.00 0.00 0.01 0.02 0.01 0.00 0.00 0.00 0.00 0.00 0.00 0.04 0.04 0.10 0.10 0.09 0.14 0.09 0.04 0.05 0.01 0.02 0.01 0.00 0.00 0.00 0.00 0.00 0.00
0.00 0.00 0.00 0.00 0.00 0.00 0.02 0.02 0.00 0.00 0.00 0.00 0.00 0.02 0.05 0.04 0.08 0.14 0.11 0.07 0.05 0.02 0.08 0.03 0.01 0.02 0.00 0.00 0.00 0.00 0.00 0.00
0.00 0.00 0.00 0.00 0.00 0.00 0.01 0.04 0.02 0.01 0.00 0.00 0.00 0.02 0.04 0.07 0.10 0.08 0.04 0.02 0.02 0.01 0.03 0.02 0.02 0.03 0.02 0.03 0.03 0.02 0.02 0.03
0.00 0.00 0.00 0.00 0.00 0.00 0.02 0.07 0.06 0.03 0.01 0.04 0.07 0.11 0.13 0.12 0.09 0.05 0.03 0.05 0.04 0.03 0.02 0.02 0.02 0.03 0.04 0.08 0.05 0.08 0.19 0.29
0.00 0.00 0.00 0.00 0.00 0.00 0.01 0.11 0.06 0.10 0.07 0.11 0.13 0.16 0.15 0.10 0.07 0.04 0.03 0.02 0.03 0.03 0.04 0.05 0.05 0.07 0.09 0.12 0.11 0.17 0.24 0.28
0.00 0.00 0.00 0.00 0.01 0.01 0.03 0.10 0.15 0.16 0.23 0.17 0.18 0.16 0.17 0.06 0.02 0.02 0.05 0.09 0.11 0.08 0.05 0.06 0.10 0.14 0.10 0.09 0.14 0.19 0.20 0.24
0.00 0.00 0.00 0.00 0.01 0.01 0.04 0.08 0.17 0.17 0.23 0.21 0.23 0.19 0.07 0.13 0.05 0.10 0.14 0.12 0.08 0.06 0.06 0.12 0.16 0.15 0.19 0.25 0.29 0.27 0.26 0.26
0.00 0.00 0.00 0.00 0.00 0.01 0.07 0.12 0.16 0.17 0.17 0.19 0.28 0.27 0.14 0.08 0.11 0.13 0.17 0.13 0.09 0.13 0.20 0.23 0.34 0.36 0.26 0.17 0.16 0.18 0.19 0.17
0.00 0.00 0.00 0.00 0.00 0.04 0.07 0.06 0.08 0.09 0.09 0.14 0.20 0.23 0.33 0.23 0.22 0.41 0.44 0.43 0.37 0.40 0.42 0.40 0.31 0.21 0.17 0.22 0.23 0.19 0.12 0.07
0.00 0.01 0.01 0.01 0.01 0.03 0.02 0.02 0.02 0.06 0.14 0.15 0.13 0.23 0.26 0.66 0.99 1.03 0.88 0.86 0.93 0.72 0.47 0.34 0.41 0.46 0.33 0.20 0.16 0.16 0.13 0.09
0.00 0.00 0.01 0.03 0.01 0.00 0.00 0.02 0.08 0.29 0.51 0.80 0.72 0.92 1.00 1.08 1.43 1.38 1.15 0.88 0.58 0.42 0.58 0.60 0.44 0.29 0.21 0.19 0.16 0.10 0.07 0.05
0.00 0.00 0.00 0.00 0.02 0.02 0.05 0.23 0.62 0.95 1.11 1.13 0.96 1.27 1.31 1.57 1.22 0.84 0.73 0.73 0.77 0.72 0.60 0.44 0.29 0.21 0.16 0.14 0.11 0.08 0.05 0.02
0.00 0.00 0.00 0.00 0.01 0.07 0.13 0.26 0.43 0.74 0.45 0.36 0.52 0.65 0.59 0.54 0.38 0.34 0.30 0.26 0.24 0.19 0.18 0.16 0.16 0.14 0.10 0.09 0.06 0.03 0.01 0.00
0.00 0.00 0.01 0.01 0.04 0.11 0.14 0.18 0.18 0.24 0.25 0.26 0.27 0.27 0.28 0.17 0.13 0.13 0.12 0.13 0.14 0.14 0.10 0.08 0.07 0.08 0.10 0.08 0.03 0.00 0.00 0.00
0.00 0.00 0.01 0.02 0.04 0.09 0.12 0.12 0.15 0.18 0.18 0.21 0.18 0.18 0.13 0.10 0.10 0.04 0.06 0.06 0.05 0.06 0.07 0.11 0.10 0.07 0.08 0.03 0.01 0.00 0.00 0.00
0.00 0.00 0.01 0.03 0.03 0.01 0.03 0.05 0.08 0.07 0.11 0.10 0.09 0.07 0.06 0.04 0.03 0.02 0.01 0.04 0.08 0.12 0.15 0.11 0.05 0.01 0.02 0.00 0.00 0.00 0.00 0.00
0.00 0.01 0.02 0.00 0.00 0.00 0.01 0.01 0.02 0.01 0.01 0.01 0.01 0.01 0.00 0.00 0.01 0.05 0.10 0.13 0.16 0.13 0.04 0.01 0.00 0.00 0.00 0.00 0.00 0.00 0.00 0.00

GFSFLT1_prec_precacc24_075.txt.gz
Total_Precipitation_Accumulation
0.00 0.00 0.00 0.00 0.00 0.02 0.07 0.06 0.06 0.05 0.02 0.03 0.01 0.01 0.03 0.04 0.04 0.10 0.15 0.16 0.09 0.04 0.03 0.00 0.00 0.00 0.00 0.00 0.00 0.00 0.00 0.00
0.00 0.00 0.00 0.00 0.00 0.00 0.01 0.01 0.01 0.01 0.01 0.01 0.01 0.01 0.02 0.05 0.11 0.14 0.17 0.15 0.10 0.04 0.03 0.00 0.00 0.00 0.00 0.00 0.00 0.00 0.00 0.00
0.00 0.00 0.00 0.00 0.00 0.00 0.00 0.00 0.00 0.00 0.00 0.00 0.00 0.00 0.04 0.04 0.10 0.10 0.09 0.14 0.09 0.04 0.05 0.01 0.02 0.01 0.00 0.00 0.00 0.00 0.00 0.00
0.00 0.00 0.00 0.00 0.00 0.00 0.00 0.00 0.00 0.00 0.00 0.00 0.00 0.02 0.05 0.04 0.08 0.14 0.11 0.07 0.05 0.02 0.08 0.03 0.01 0.02 0.00 0.00 0.00 0.00 0.00 0.00
0.00 0.00 0.00 0.00 0.00 0.00 0.00 0.01 0.00 0.00 0.00 0.00 0.00 0.01 0.04 0.07 0.10 0.08 0.04 0.02 0.02 0.01 0.03 0.02 0.02 0.03 0.02 0.03 0.03 0.02 0.02 0.03
0.00 0.00 0.00 0.00 0.00 0.00 0.01 0.01 0.00 0.01 0.00 0.03 0.06 0.10 0.13 0.12 0.09 0.05 0.03 0.05 0.04 0.03 0.02 0.02 0.02 0.03 0.05 0.10 0.07 0.09 0.21 0.31
0.00 0.00 0.00 0.00 0.00 0.00 0.00 0.01 0.02 0.08 0.03 0.07 0.11 0.15 0.15 0.10 0.07 0.04 0.03 0.02 0.03 0.03 0.04 0.05 0.05 0.08 0.13 0.21 0.17 0.20 0.27 0.30
0.00 0.00 0.00 0.00 0.00 0.00 0.00 0.00 0.04 0.08 0.15 0.13 0.17 0.16 0.17 0.06 0.02 0.02 0.05 0.09 0.11 0.08 0.05 0.05 0.10 0.18 0.20 0.19 0.22 0.22 0.22 0.27
0.00 0.00 0.00 0.00 0.01 0.01 0.00 0.00 0.06 0.11 0.20 0.20 0.23 0.19 0.07 0.13 0.05 0.10 0.14 0.12 0.08 0.06 0.04 0.10 0.18 0.20 0.30 0.36 0.38 0.32 0.29 0.27
0.00 0.00 0.00 0.00 0.00 0.00 0.00 0.02 0.12 0.16 0.17 0.19 0.28 0.27 0.14 0.08 0.11 0.13 0.17 0.13 0.09 0.11 0.18 0.22 0.36 0.45 0.38 0.31 0.31 0.26 0.22 0.18
0.00 0.00 0.00 0.00 0.00 0.00 0.00 0.04 0.08 0.09 0.09 0.14 0.20 0.23 0.33 0.23 0.22 0.41 0.46 0.47 0.37 0.40 0.45 0.47 0.37 0.27 0.26 0.34 0.32 0.23 0.15 0.10
0.00 0.01 0.01 0.01 0.00 0.01 0.01 0.01 0.05 0.13 0.24 0.16 0.12 0.22 0.26 0.65 1.02 1.07 0.93 0.94 1.02 0.92 0.73 0.58 0.58 0.56 0.45 0.32 0.24 0.19 0.14 0.10
0.00 0.00 0.01 0.03 0.01 0.00 0.00 0.02 0.11 0.51 0.72 0.90 0.75 0.94 1.01 1.12 1.50 1.45 1.17 1.03 0.89 0.77 0.83 0.75 0.51 0.34 0.26 0.22 0.19 0.12 0.09 0.07
0.00 0.00 0.00 0.00 0.02 0.01 0.03 0.22 0.62 1.03 1.19 1.17 0.98 1.27 1.33 1.62 1.45 1.27 1.15 1.05 0.94 0.78 0.61 0.45 0.30 0.23 0.19 0.18 0.16 0.13 0.08 0.05
0.00 0.00 0.00 0.00 0.00 0.01 0.08 0.21 0.40 0.73 0.45 0.39 0.56 0.65 0.58 0.59 0.45 0.47 0.39 0.34 0.28 0.21 0.22 0.21 0.20 0.18 0.15 0.15 0.11 0.06 0.03 0.02
0.00 0.00 0.00 0.00 0.02 0.07 0.09 0.12 0.13 0.21 0.21 0.25 0.29 0.30 0.29 0.18 0.15 0.15 0.17 0.19 0.19 0.16 0.14 0.12 0.12 0.14 0.16 0.12 0.06 0.03 0.02 0.02
0.00 0.00 0.00 0.01 0.02 0.06 0.09 0.09 0.11 0.15 0.17 0.22 0.22 0.22 0.14 0.10 0.10 0.06 0.07 0.09 0.09 0.09 0.11 0.15 0.15 0.10 0.15 0.08 0.03 0.01 0.01 0.01
0.00 0.00 0.01 0.02 0.02 0.01 0.02 0.02 0.05 0.07 0.14 0.13 0.12 0.09 0.07 0.04 0.03 0.02 0.02 0.05 0.09 0.15 0.18 0.15 0.08 0.05 0.08 0.02 0.02 0.00 0.00 0.00
0.00 0.01 0.02 0.00 0.00 0.00 0.01 0.01 0.01 0.01 0.02 0.03 0.03 0.02 0.01 0.00 0.02 0.04 0.06 0.11 0.17 0.15 0.07 0.03 0.02 0.02 0.02 0.01 0.01 0.00 0.00 0.00

GFSFLT1_prec_precacc24_078.txt.gz
Total_Precipitation_Accumulation
0.00 0.00 0.00 0.00 0.00 0.02 0.10 0.11 0.11 0.10 0.09 0.09 0.10 0.06 0.04 0.01 0.02 0.08 0.15 0.16 0.09 0.04 0.03 0.00 0.00 0.00 0.00 0.00 0.00 0.00 0.00 0.00
0.00 0.00 0.00 0.00 0.00 0.00 0.04 0.04 0.05 0.09 0.06 0.09 0.12 0.06 0.02 0.03 0.07 0.12 0.17 0.15 0.10 0.04 0.03 0.00 0.00 0.00 0.00 0.00 0.00 0.00 0.00 0.00
0.00 0.00 0.00 0.00 0.00 0.00 0.00 0.00 0.01 0.02 0.01 0.03 0.06 0.03 0.02 0.02 0.08 0.09 0.09 0.14 0.09 0.04 0.05 0.01 0.02 0.01 0.00 0.00 0.00 0.00 0.00 0.00
0.00 0.00 0.00 0.00 0.00 0.00 0.00 0.00 0.00 0.00 0.00 0.03 0.02 0.02 0.03 0.03 0.09 0.15 0.11 0.07 0.05 0.02 0.08 0.03 0.01 0.02 0.00 0.00 0.00 0.00 0.00 0.00
0.00 0.00 0.00 0.00 0.00 0.00 0.00 0.00 0.00 0.00 0.00 0.00 0.00 0.00 0.02 0.06 0.10 0.08 0.04 0.02 0.02 0.01 0.03 0.02 0.02 0.03 0.02 0.03 0.03 0.02 0.02 0.04
0.00 0.00 0.00 0.00 0.00 0.00 0.00 0.00 0.00 0.00 0.00 0.00 0.00 0.01 0.04 0.07 0.07 0.05 0.03 0.05 0.04 0.03 0.02 0.02 0.02 0.03 0.05 0.10 0.07 0.09 0.21 0.31
0.00 0.00 0.00 0.00 0.00 0.00 0.00 0.00 0.00 0.00 0.00 0.02 0.03 0.05 0.05 0.05 0.06 0.04 0.03 0.02 0.03 0.03 0.04 0.05 0.05 0.08 0.13 0.22 0.19 0.21 0.28 0.31
0.00 0.00 0.00 0.00 0.00 0.00 0.00 0.00 0.00 0.00 0.02 0.05 0.09 0.08 0.13 0.04 0.02 0.02 0.05 0.09 0.11 0.08 0.05 0.05 0.09 0.17 0.20 0.21 0.25 0.28 0.28 0.31
0.00 0.00 0.00 0.00 0.00 0.00 0.00 0.00 0.00 0.00 0.03 0.07 0.15 0.13 0.06 0.13 0.05 0.10 0.14 0.12 0.08 0.06 0.04 0.10 0.16 0.19 0.29 0.39 0.43 0.41 0.40 0.38
0.00 0.00 0.00 0.00 0.00 0.00 0.00 0.00 0.00 0.00 0.03 0.12 0.22 0.24 0.13 0.08 0.11 0.13 0.17 0.13 0.09 0.10 0.17 0.19 0.29 0.40 0.38 0.34 0.39 0.45 0.48 0.43
0.00 0.00 0.00 0.00 0.00 0.00 0.00 0.02 0.01 0.01 0.03 0.10 0.16 0.22 0.33 0.23 0.22 0.41 0.45 0.46 0.36 0.37 0.39 0.37 0.32 0.28 0.28 0.36 0.36 0.31 0.27 0.22
0.00 0.01 0.01 0.01 0.01 0.02 0.03 0.02 0.06 0.16 0.23 0.14 0.10 0.21 0.25 0.65 1.02 1.07 0.93 0.93 1.00 0.83 0.68 0.64 0.68 0.68 0.59 0.44 0.30 0.25 0.23 0.18
0.00 0.00 0.01 0.03 0.01 0.00 0.01 0.03 0.11 0.54 0.81 0.92 0.71 0.90 0.94 1.06 1.46 1.43 1.16 1.01 0.84 0.76 0.87 0.79 0.57 0.39 0.29 0.24 0.21 0.15 0.12 0.11
0.00 0.00 0.00 0.00 0.02 0.01 0.02 0.18 0.59 0.98 1.20 1.22 0.97 1.24 1.27 1.56 1.42 1.25 1.15 1.05 0.97 0.80 0.64 0.47 0.31 0.23 0.19 0.18 0.16 0.16 0.13 0.12
0.00 0.00 0.00 0.00 0.00 0.00 0.04 0.16 0.33 0.63 0.34 0.32 0.57 0.69 0.57 0.60 0.45 0.46 0.41 0.39 0.31 0.24 0.22 0.21 0.21 0.18 0.16 0.16 0.16 0.14 0.13 0.13
0.00 0.00 0.00 0.00 0.00 0.03 0.04 0.06 0.07 0.15 0.15 0.19 0.25 0.31 0.34 0.24 0.19 0.17 0.19 0.20 0.25 0.26 0.20 0.16 0.13 0.16 0.18 0.16 0.13 0.11 0.10 0.09
0.00 0.00 0.00 0.00 0.01 0.03 0.05 0.06 0.09 0.13 0.15 0.19 0.20 0.22 0.16 0.14 0.13 0.06 0.07 0.13 0.14 0.14 0.16 0.20 0.18 0.14 0.22 0.14 0.08 0.05 0.08 0.07
0.00 0.00 0.01 0.02 0.02 0.01 0.02 0.01 0.04 0.06 0.13 0.13 0.12 0.10 0.08 0.05 0.03 0.03 0.03 0.05 0.09 0.17 0.23 0.19 0.12 0.10 0.16 0.08 0.07 0.02 0.02 0.03
0.00 0.01 0.02 0.00 0.00 0.00 0.01 0.01 0.01 0.01 0.02 0.04 0.04 0.03 0.01 0.01 0.02 0.03 0.04 0.07 0.16 0.15 0.09 0.05 0.04 0.06 0.08 0.04 0.04 0.01 0.01 0.01

GFSFLT1_prec_precacc24_081.txt.gz
Total_Precipitation_Accumulation
0.00 0.00 0.00 0.00 0.01 0.03 0.10 0.14 0.16 0.13 0.11 0.12 0.20 0.24 0.16 0.05 0.01 0.03 0.10 0.13 0.07 0.03 0.03 0.00 0.00 0.00 0.00 0.00 0.00 0.00 0.00 0.00
0.00 0.00 0.00 0.00 0.01 0.01 0.05 0.08 0.10 0.11 0.10 0.16 0.23 0.22 0.14 0.08 0.02 0.04 0.14 0.14 0.10 0.04 0.03 0.00 0.00 0.00 0.00 0.01 0.00 0.00 0.00 0.00
0.00 0.00 0.00 0.00 0.01 0.00 0.01 0.02 0.02 0.06 0.05 0.09 0.11 0.13 0.13 0.06 0.04 0.04 0.07 0.14 0.09 0.04 0.05 0.01 0.02 0.01 0.00 0.00 0.00 0.00 0.00 0.00
0.00 0.00 0.00 0.00 0.01 0.01 0.00 0.00 0.00 0.02 0.07 0.12 0.12 0.14 0.10 0.06 0.08 0.11 0.10 0.07 0.05 0.02 0.08 0.03 0.01 0.02 0.00 0.00 0.00 0.00 0.00 0.00
0.00 0.00 0.00 0.00 0.00 0.00 0.00 0.00 0.00 0.00 0.02 0.04 0.04 0.02 0.02 0.02 0.02 0.05 0.03 0.02 0.02 0.01 0.03 0.02 0.02 0.03 0.02 0.03 0.03 0.02 0.02 0.04
0.00 0.00 0.00 0.00 0.00 0.00 0.00 0.00 0.00 0.00 0.00 0.00 0.00 0.00 0.00 0.00 0.01 0.01 0.02 0.04 0.04 0.03 0.02 0.02 0.02 0.03 0.05 0.10 0.07 0.09 0.21 0.31
0.00 0.00 0.00 0.00 0.00 0.00 0.00 0.00 0.00 0.00 0.00 0.00 0.00 0.02 0.02 0.01 0.01 0.01 0.02 0.02 0.03 0.03 0.04 0.05 0.05 0.08 0.13 0.22 0.18 0.21 0.28 0.31
0.00 0.00 0.00 0.00 0.00 0.00 0.00 0.00 0.00 0.00 0.00 0.01 0.04 0.05 0.09 0.03 0.01 0.01 0.03 0.07 0.10 0.08 0.05 0.05 0.09 0.17 0.20 0.20 0.24 0.26 0.28 0.32
0.00 0.00 0.00 0.00 0.00 0.00 0.00 0.00 0.00 0.00 0.00 0.01 0.09 0.08 0.04 0.12 0.04 0.07 0.12 0.10 0.08 0.06 0.04 0.10 0.16 0.18 0.24 0.31 0.39 0.40 0.40 0.39
0.00 0.00 0.00 0.00 0.00 0.00 0.00 0.00 0.00 0.00 0.00 0.01 0.08 0.14 0.07 0.05 0.09 0.11 0.16 0.13 0.09 0.10 0.17 0.19 0.28 0.33 0.32 0.33 0.39 0.45 0.48 0.44
0.00 0.00 0.00 0.00 0.00 0.00 0.01 0.02 0.01 0.01 0.00 0.01 0.06 0.14 0.27 0.20 0.21 0.40 0.45 0.46 0.36 0.37 0.39 0.36 0.29 0.25 0.28 0.36 0.36 0.31 0.27 0.23
0.00 0.01 0.01 0.01 0.01 0.02 0.03 0.03 0.06 0.16 0.19 0.08 0.03 0.13 0.20 0.61 0.98 1.04 0.92 0.91 0.97 0.82 0.66 0.61 0.66 0.69 0.62 0.48 0.36 0.32 0.30 0.24
0.00 0.00 0.01 0.03 0.01 0.00 0.01 0.04 0.13 0.53 0.78 0.85 0.61 0.78 0.82 0.94 1.37 1.38 1.11 0.95 0.79 0.75 0.85 0.75 0.53 0.39 0.32 0.27 0.26 0.19 0.19 0.22
0.00 0.00 0.00 0.00 0.02 0.01 0.02 0.18 0.59 0.96 1.17 1.23 0.90 1.13 1.16 1.46 1.33 1.17 1.03 0.92 0.94 0.79 0.60 0.42 0.29 0.22 0.20 0.20 0.18 0.16 0.13 0.13
0.00 0.00 0.00 0.00 0.00 0.00 0.03 0.16 0.30 0.60 0.32 0.28 0.48 0.58 0.46 0.49 0.38 0.41 0.37 0.36 0.31 0.24 0.21 0.19 0.20 0.20 0.18 0.18 0.16 0.15 0.14 0.13
0.00 0.00 0.00 0.00 0.00 0.00 0.01 0.04 0.06 0.13 0.11 0.16 0.22 0.27 0.31 0.22 0.19 0.20 0.22 0.20 0.21 0.21 0.21 0.19 0.18 0.18 0.20 0.18 0.14 0.11 0.10 0.11
0.00 0.00 0.00 0.00 0.00 0.01 0.04 0.06 0.09 0.12 0.14 0.18 0.19 0.22 0.17 0.15 0.15 0.09 0.09 0.12 0.13 0.13 0.15 0.18 0.18 0.17 0.29 0.18 0.10 0.06 0.08 0.09
0.00 0.00 0.01 0.02 0.02 0.01 0.02 0.01 0.04 0.06 0.13 0.13 0.12 0.10 0.07 0.05 0.04 0.03 0.03 0.06 0.09 0.14 0.16 0.16 0.12 0.12 0.23 0.12 0.09 0.03 0.03 0.04
0.00 0.01 0.02 0.00 0.00 0.00 0.01 0.01 0.01 0.01 0.02 0.04 0.04 0.03 0.01 0.01 0.02 0.02 0.03 0.04 0.07 0.08 0.08 0.06 0.06 0.10 0.13 0.06 0.06 0.01 0.02 0.03